Clinton-Sherman, OK

4:55 AM CDT on August 22, 2017 (GMT -0500)
Clinton-Sherman

Weather History for KCSM - November, 2013

Change the Weather History Date:

Tuesday, November 12, 2013

  Actual Average Record
Temperature  
Mean Temperature 34 °F -  
Max Temperature 42 °F 58 °F 81 °F (1999)
Min Temperature 25 °F 40 °F 19 °F (2014)
Degree Days  
Heating Degree Days 30    
Moisture  
Dew Point 16 °F    
Average Humidity 52    
Maximum Humidity 82    
Minimum Humidity 25    
Precipitation  
Precipitation 0.00 in - - ()
Sea Level Pressure  
Sea Level Pressure 30.73 in    
Wind  
Wind Speed 21 mph (NNE)    
Max Wind Speed 32 mph    
Max Gust Speed 39 mph    
Visibility 10 miles    
Events      
Averages and records for this station are not official NWS values.
T = Trace of Precipitation, MM = Missing Value Source: NWS Daily Summary

Daily Weather History Graph

Daily Weather History Graph

Search for Another Location

Airport or City:

Trip Planner

Search our weather history database for the weather conditions in past years. The results will help you decide how hot, cold, wet, or windy it might be!

Date:

Astronomy

Nov. 12, 2013 Rise Set
Actual Time 7:09 AM CST 5:32 PM CST
Civil Twilight 6:42 AM CST 5:59 PM CST
Nautical Twilight 6:11 AM CST 6:29 PM CST
Astronomical Twilight 5:41 AM CST 6:59 PM CST
Moon 2:38 PM CST (11/12) 2:11 AM CST (11/12)
Length of Visible Light 11h 16m
Length of Day
10h 23m
Waxing Gibbous, 76% of the Moon is Illuminated
Nov 12
Waxing Gibbous
Nov 17
Full
Nov 25
Last Quarter
Dec 2
New
Dec 9
First Quarter

Hourly Weather History & Observations

Time (CST) Temp. Windchill Dew Point Humidity Pressure Visibility Wind Dir Wind Speed Gust Speed Precip Events Conditions
12:53 AM 37.0 °F 24.9 °F 32.0 °F 82% 30.56 in 10.0 mi North 27.6 mph 36.8 mph N/A   Overcast
1:53 AM 36.0 °F 23.9 °F 30.0 °F 79% 30.61 in 10.0 mi North 25.3 mph 35.7 mph N/A   Overcast
2:50 AM 33.8 °F 19.9 °F 28.4 °F 81% 30.62 in 10.0 mi North 31.1 mph 36.8 mph N/A   Overcast
2:53 AM 33.1 °F 18.7 °F 27.0 °F 78% 30.62 in 10.0 mi North 32.2 mph 38.0 mph N/A   Overcast
3:53 AM 32.0 °F 17.6 °F 19.0 °F 59% 30.65 in 10.0 mi North 29.9 mph 39.1 mph N/A   Overcast
4:53 AM 30.0 °F 15.4 °F 14.0 °F 51% 30.68 in 10.0 mi North 27.6 mph 38.0 mph N/A   Overcast
5:53 AM 28.0 °F 14.6 °F 15.1 °F 58% 30.72 in 10.0 mi North 20.7 mph - N/A   Clear
6:53 AM 27.0 °F 13.2 °F 15.1 °F 61% 30.75 in 10.0 mi North 20.7 mph 28.8 mph N/A   Clear
7:53 AM 28.0 °F 13.9 °F 15.1 °F 58% 30.80 in 10.0 mi North 23.0 mph - N/A   Clear
8:53 AM 30.0 °F 16.9 °F 16.0 °F 56% 30.81 in 10.0 mi North 21.9 mph 29.9 mph N/A   Clear
9:53 AM 32.0 °F 19.8 °F 15.1 °F 50% 30.83 in 10.0 mi North 20.7 mph - N/A   Clear
10:53 AM 35.1 °F 23.5 °F 15.1 °F 44% 30.83 in 10.0 mi NNE 21.9 mph 31.1 mph N/A   Clear
11:53 AM 37.0 °F 27.4 °F 12.9 °F 37% 30.82 in 10.0 mi North 17.3 mph 27.6 mph N/A   Clear
12:53 PM 39.0 °F 29.0 °F 12.9 °F 34% 30.79 in 10.0 mi North 20.7 mph - N/A   Clear
1:53 PM 41.0 °F 32.2 °F 10.9 °F 29% 30.76 in 10.0 mi NNE 18.4 mph 23.0 mph N/A   Clear
2:53 PM 42.1 °F 34.9 °F 9.0 °F 26% 30.75 in 10.0 mi NNE 13.8 mph 20.7 mph N/A   Clear
3:53 PM 42.1 °F 33.9 °F 8.1 °F 25% 30.74 in 10.0 mi North 17.3 mph - N/A   Clear
4:53 PM 39.9 °F 32.9 °F 9.0 °F 28% 30.74 in 10.0 mi NNE 11.5 mph - N/A   Clear
5:53 PM 33.1 °F 27.7 °F 15.1 °F 48% 30.75 in 10.0 mi NNE 5.8 mph - N/A   Clear
6:53 PM 32.0 °F 27.5 °F 12.0 °F 44% 30.76 in 10.0 mi NE 4.6 mph - N/A   Clear
7:53 PM 30.0 °F 24.1 °F 12.9 °F 49% 30.76 in 10.0 mi ENE 5.8 mph - N/A   Clear
8:53 PM 30.0 °F 23.2 °F 12.0 °F 47% 30.75 in 10.0 mi East 6.9 mph - N/A   Clear
9:53 PM 28.0 °F 24.2 °F 14.0 °F 56% 30.75 in 10.0 mi ESE 3.5 mph - N/A   Clear
10:53 PM 27.0 °F 23.0 °F 15.1 °F 61% 30.74 in 10.0 mi SE 3.5 mph - N/A   Clear
11:53 PM 25.0 °F - 16.0 °F 69% 30.72 in 10.0 mi Calm Calm - N/A   Clear